This is the latest recevied weather packets stored in our database for station/object RK6MF-10. If no packets are shown the sender has not sent any weather packets the latest 10 day(s).
| Time | Temp. | Humidity | Pressure | Rain* | Wind** | Luminosity | Snow |
|---|---|---|---|---|---|---|---|
| 1787853010 | 25.56° C | 34% | 1008.6 hPa | - | - | - | - |
| 1787852110 | 25.56° C | 34% | 1008.5 hPa | - | - | - | - |
| 1787851209 | 26.11° C | 34% | 1008.4 hPa | - | - | - | - |
| 1787850309 | 26.11° C | 33% | 1008.5 hPa | - | - | - | - |
| 1787849409 | 26.67° C | 33% | 1008.3 hPa | - | - | - | - |
| 1787848509 | 26.67° C | 32% | 1008.1 hPa | - | - | - | - |
| 1787847609 | 26.67° C | 32% | 1008 hPa | - | - | - | - |
| 1787846709 | 27.22° C | 34% | 1007.9 hPa | - | - | - | - |
| 1787844009 | 28.33° C | 35% | 1007.4 hPa | - | - | - | - |
| 1787843109 | 28.33° C | 34% | 1007.5 hPa | - | - | - | - |
| 1787842208 | 28.89° C | 33% | 1007.8 hPa | - | - | - | - |
| 1787841308 | 29.44° C | 32% | 1008 hPa | - | - | - | - |
| 1787840408 | 29.44° C | 32% | 1008.1 hPa | - | - | - | - |
| 1787839508 | 30.56° C | 30% | 1007.9 hPa | - | - | - | - |
| 1787838608 | 31.67° C | 29% | 1007.9 hPa | - | - | - | - |
| 1787836811 | 31.67° C | 28% | 1008.3 hPa | - | - | - | - |
| 1787835911 | 31.11° C | 29% | 1008.3 hPa | - | - | - | - |
| 1787835011 | 31.11° C | 29% | 1008.3 hPa | - | - | - | - |
| 1787834111 | 31.11° C | 29% | 1008.3 hPa | - | - | - | - |
| 1787833211 | 30.56° C | 29% | 1008.4 hPa | - | - | - | - |
| 1787832311 | 30.56° C | 29% | 1008.5 hPa | - | - | - | - |
| 1787831411 | 31.67° C | 29% | 1008.6 hPa | - | - | - | - |
| 1787830511 | 30.56° C | 29% | 1008.7 hPa | - | - | - | - |
| 1787829610 | 32.78° C | 28% | 1008.9 hPa | - | - | - | - |
| 1787828710 | 30° C | 30% | 1009 hPa | - | - | - | - |
* Rain since midnight (hover to see other rain measurements)
** Current wind speed in m/s (hover to see current wind gust speed)